CW2550 Weather Reports


Display with metric or nautical units.
time (UTC)temp
F
wind
direction
speed
MPH
gust
MPH
rain 1hr
in
rain 24hr
in
rain mn
in
humidity
%
barometer
mb
20260503190047 67 296 3.0 16.0 0.00 0.02 0.02 35 1005.4
20260503184604 66 333 8.0 17.0 0.00 0.02 0.02 36 1005.3
20260503183045 66 329 8.0 17.0 0.00 0.02 0.02 35 1005.5
20260503181550 66 319 5.0 15.0 0.00 0.02 0.02 39 1005.6
20260503180046 65 313 5.0 15.0 0.00 0.02 0.02 40 1005.7
20260503174600 65 319 6.0 18.0 0.00 0.02 0.02 39 1005.8
20260503173041 65 306 6.0 15.0 0.00 0.02 0.02 40 1005.7
20260503171548 65 279 5.0 17.0 0.00 0.02 0.02 39 1005.7
20260503081554 55 206 10.0 18.0 0.00 0.02 0.02 47 1004.8
20260503071603 55 162 7.0 16.0 0.02 0.02 0.02 53 1006.1
20260503070108 55 198 8.0 24.0 0.02 0.02 0.02 58 1006.5
20260503054552 55 204 3.0 7.0 0.00 0.00 0.00 50 1007.6
20260503053043 56 191 5.0 9.0 0.00 0.00 0.00 50 1007.5
20260503051549 56 205 4.0 11.0 0.00 0.00 0.00 49 1007.4
20260503050051 56 194 5.0 10.0 0.00 0.00 0.00 49 1007.6
20260503044542 55 184 6.0 11.0 0.00 0.00 0.00 49 1007.7
20260503043048 56 204 4.0 8.0 0.00 0.00 0.00 49 1008.0
20260503041545 56 194 4.0 7.0 0.00 0.00 0.00 48 1008.5
20260503040046 57 185 3.0 5.0 0.00 0.00 0.00 47 1008.7
20260503034548 57 175 2.0 5.0 0.00 0.00 0.00 47 1008.8
20260503033053 58 169 4.0 9.0 0.00 0.00 0.00 46 1009.1
20260503031543 58 182 4.0 8.0 0.00 0.00 0.00 46 1009.4
20260503030039 59 202 4.0 7.0 0.00 0.00 0.00 45 1009.9
20260503024551 60 189 3.0 10.0 0.00 0.00 0.00 45 1010.0
20260503023046 60 217 2.0 10.0 0.00 0.00 0.00 44 1010.2
20260503021541 60 279 5.0 11.0 0.00 0.00 0.00 45 1010.3
20260503020045 60 209 2.0 20.0 0.00 0.00 0.00 45 1010.3
20260503014602 60 219 8.0 14.0 0.00 0.00 0.00 44 1010.6
20260503013038 60 211 4.0 10.0 0.00 0.00 0.00 43 1010.4
20260503011552 61 209 4.0 20.0 0.00 0.00 0.00 43 1010.5
20260503010044 60 196 5.0 19.0 0.00 0.00 0.00 45 1010.5
20260503004541 61 245 2.0 9.0 0.00 0.00 0.00 41 1010.6
20260503003042 61 208 5.0 26.0 0.00 0.00 0.00 41 1010.6
20260503001544 62 202 6.0 11.0 0.00 0.00 0.00 38 1010.3
20260503000041 63 209 4.0 9.0 0.00 0.00 0.00 37 1010.4
20260502234603 63 217 6.0 16.0 0.00 0.00 0.00 36 1010.4
20260502233042 63 194 6.0 16.0 0.00 0.00 0.00 36 1010.6
20260502231541 63 192 6.0 13.0 0.00 0.00 0.00 36 1010.8
20260502230042 63 216 6.0 14.0 0.00 0.00 0.00 35 1010.8
20260502224543 64 182 5.0 18.0 0.00 0.00 0.00 35 1011.1
20260502223058 63 198 8.0 18.0 0.00 0.00 0.00 35 1011.1
20260502221544 64 211 5.0 14.0 0.00 0.00 0.00 34 1011.4
20260502220057 64 287 5.0 16.0 0.00 0.00 0.00 33 1011.6
20260502214549 64 244 3.0 16.0 0.00 0.00 0.00 33 1011.8
20260502213051 63 218 6.0 16.0 0.00 0.00 0.00 34 1011.9
20260502211552 63 251 8.0 17.0 0.00 0.00 0.00 34 1012.3
20260502210051 63 258 5.0 12.0 0.00 0.00 0.00 35 1012.6
20260502204544 63 349 6.0 14.0 0.00 0.00 0.00 36 1012.8
20260502203055 62 233 4.0 14.0 0.00 0.00 0.00 35 1013.0
20260502201543 61 210 8.0 17.0 0.00 0.00 0.00 35 1013.3
20260502200051 61 215 7.0 15.0 0.00 0.00 0.00 35 1013.7
20260502194545 60 292 7.0 14.0 0.00 0.00 0.00 36 1013.9
20260502193056 59 230 5.0 15.0 0.00 0.00 0.00 36 1014.2
20260502191542 59 304 3.0 14.0 0.00 0.00 0.00 37 1014.5